Location: Assevillers
(49.8975°N, 2.8362°E)
Time: 16:36:35
(UTC+00:00)

Cosmos 2266 Rocket - Pass Details

Date: 13 December 2025
Orbit: 934 x 1006 km, 82.9° (Epoch: 10 April)

Event Time Altitude Azimuth Distance (km) Brightness Sun altitude
Rises 16:40:52 0° 351° (N) 3,655 6.8 -8.2°
Reaches altitude 10° 16:43:24 10° 353° (N) 2,695 6.1 -8.6°
Maximum altitude 16:49:34 74° 79° (E) 985 3.9 -9.5°
Drops below altitude 10° 16:55:35 10° 165° (SSE) 2,643 6.4 -10.3°
Sets 16:58:03 0° 167° (SSE) 3,579 7.1 -10.7°
